TimeMST,TemperatureF,Dew PointF,Humidity,Sea Level PressureIn,VisibilityMPH,Wind Direction,Wind SpeedMPH,Gust SpeedMPH,PrecipitationIn,Events,Conditions,WindDirDegrees,DateUTC
12:58 AM,27.7,17.4,65,29.82,10.0,SE,12.7,-,N/A,,Clear,130,2012-12-08 07:58:00
1:58 AM,26.1,17.2,69,29.84,10.0,ESE,10.4,-,N/A,,Clear,120,2012-12-08 08:58:00
2:58 AM,24.8,16.3,70,29.82,10.0,ESE,9.2,-,N/A,,Clear,120,2012-12-08 09:58:00
3:58 AM,24.3,16.5,72,29.81,10.0,ESE,9.2,-,N/A,,Clear,120,2012-12-08 10:58:00
4:58 AM,23.4,16.3,75,29.84,10.0,SE,5.8,-,N/A,,Clear,140,2012-12-08 11:58:00
5:58 AM,21.9,15.6,77,29.86,10.0,SSW,2.3,-,N/A,,Clear,200,2012-12-08 12:58:00
6:58 AM,19.6,14.2,80,29.87,10.0,SSW,5.8,-,N/A,,Clear,200,2012-12-08 13:58:00
7:58 AM,19.8,14.9,81,29.87,10.0,Calm,Calm,-,N/A,,Clear,0,2012-12-08 14:58:00
8:58 AM,25.0,16.5,70,29.83,10.0,SW,4.6,-,N/A,,Clear,230,2012-12-08 15:58:00
9:58 AM,32.4,18.1,56,29.77,10.0,South,12.7,-,N/A,,Clear,170,2012-12-08 16:58:00
10:58 AM,37.9,18.0,45,29.71,10.0,South,11.5,-,N/A,,Clear,170,2012-12-08 17:58:00
11:45 AM,42.8,15.8,34,29.63,10.0,SSW,20.7,28.8,N/A,,Clear,210,2012-12-08 18:45:00
11:54 AM,46.4,12.2,25,29.63,10.0,West,19.6,31.1,N/A,,Clear,260,2012-12-08 18:54:00
11:58 AM,46.6,8.8,22,29.60,10.0,West,20.7,33.4,N/A,,Clear,270,2012-12-08 18:58:00
12:05 PM,50.0,8.6,19,29.62,10.0,WNW,29.9,42.6,N/A,,Clear,290,2012-12-08 19:05:00
12:12 PM,50.0,6.8,17,29.63,10.0,WSW,18.4,42.6,N/A,,Clear,250,2012-12-08 19:12:00
12:13 PM,51.8,8.6,18,29.63,10.0,WSW,19.6,42.6,N/A,,Clear,250,2012-12-08 19:13:00
12:58 PM,51.4,6.4,16,29.56,10.0,West,32.2,47.2,N/A,,Clear,280,2012-12-08 19:58:00
1:12 PM,51.8,6.8,16,29.62,10.0,WNW,28.8,39.1,N/A,,Clear,290,2012-12-08 20:12:00
1:58 PM,51.8,6.8,16,29.59,10.0,WNW,23.0,36.8,0.01,,Clear,290,2012-12-08 20:58:00
2:54 PM,50.0,6.8,17,29.62,10.0,WSW,18.4,32.2,N/A,,Clear,250,2012-12-08 21:54:00
2:58 PM,50.4,7.2,17,29.61,10.0,West,16.1,32.2,N/A,,Clear,270,2012-12-08 21:58:00
3:58 PM,46.9,7.9,20,29.66,10.0,WNW,9.2,26.5,N/A,,Clear,290,2012-12-08 22:58:00
4:58 PM,44.2,9.7,24,29.70,10.0,WNW,15.0,20.7,N/A,,Clear,290,2012-12-08 23:58:00
5:58 PM,41.2,9.0,27,29.73,10.0,West,11.5,-,N/A,,Clear,280,2012-12-09 00:58:00
6:58 PM,41.9,10.4,28,29.76,10.0,West,9.2,-,N/A,,Clear,260,2012-12-09 01:58:00
7:58 PM,31.1,18.1,59,29.86,10.0,North,15.0,21.9,N/A,,Mostly Cloudy,350,2012-12-09 02:58:00
8:58 PM,26.8,14.7,60,29.90,10.0,NNE,21.9,24.2,N/A,,Partly Cloudy,20,2012-12-09 03:58:00
9:18 PM,24.8,12.2,59,29.81,10.0,NNE,17.3,-,N/A,,Mostly Cloudy,20,2012-12-09 04:18:00
9:58 PM,22.5,13.1,67,29.90,10.0,NNE,11.5,-,N/A,,Scattered Clouds,30,2012-12-09 04:58:00
10:58 PM,22.3,14.2,71,29.89,10.0,North,10.4,-,N/A,,Mostly Cloudy,10,2012-12-09 05:58:00
11:43 PM,21.2,14.0,74,29.84,10.0,North,9.2,-,N/A,,Overcast,360,2012-12-09 06:43:00
11:58 PM,21.4,12.6,69,29.86,10.0,North,10.4,-,N/A,,Overcast,10,2012-12-09 06:58:00